sat.trackr.live / text

‹ back to catalog

STARLINK-11273 [DTC]

NORAD 60913 · 2024-154L

PAYLOAD ACTIVE UNKNOWN

§ Identity

Operator
Country
US
Launch date
2024-08-31
Launch site
AFETR
Launch vehicle
Mass (kg)
RCS (m²)

Purposes: comms

External: N2YO · Heavens-Above · Gunter

§ Orbital elements

Epoch: 2026-09-21T07:59:52.070784Z

Period
91.74 min
Inclination
53.1606°
Eccentricity
0.0001206
Mean motion
15.69706177 rev/d
Perigee alt
358.9 km
Apogee alt
360.6 km
Semi-major
6,737.9 km
B*
2.2922e-6
RAAN
246.7213°
Arg perigee
84.3875°
Mean anomaly
275.7281°
Rev number
11,923

§ Raw data

STARLINK-11273 [DTC]1 60913U 24154L   26264.33324156 -.00000311  00000+0  22922-5 0  99992 60913  53.1606 246.7213 0001206  84.3875 275.7281 15.69706177119238

JSON: /api/v1/satellites/60913 · /tle

For live sub-satellite position, see the globe view (requires WebGL).

§ Visibility from observer

Set your observer location to see the next 7 days of passes ≥ 10°. The values pass through the URL so the page stays shareable.

No JS? Fill the form by hand. The geolocation button needs JavaScript.